Find Starlink 33572

NORAD ID: 62767 Int'l Des: 2025-015 Owner: SPXS Country: US Constellation: starlink operational
LEOCIRCULAR

現在のビュー

3D地球を読み込み中...

About Starlink 33572

Starlink 33572 (NORAD 62767) is a starlink constellation satellite (v2 mini) launched Jan 21, 2025 by SPXS of US. It operates in LEO, CIRCULAR orbit with a mass of 575.00 kg.

次回通過

Passes for default location (London). Set your location on the main map for personalized predictions.

高度履歴

Loading altitude history...

軌道要素

1 62767U 25015K 26265.02945857 .00006219 00000-0 19506-3 0 9994
2 62767 53.1579 126.7904 0001027 92.0773 268.0347 15.34395112 94532
Epoch: Sep 22, 2026 • Age: 28 hours

現在のステータス

高度 472.0 km
遠地点 / 近地点 N/A
速度 7.63 km/s
衛星直下点 -29.45°S, 99.12°W
打ち上げ日 Jan 21, 2025
運用期間 1.6 years
タイプ internet

技術仕様

分類 Payload
質量 575.00 kg
乾燥質量 530.00 kg
長さ 0.30 m
スパン 29.00 m
形状 ? Box + pan
製造者 SPXS
バスタイプ Starlink V2MO
フェーズステータス In Orbit
所有者/国 SPXS/US

Most Searched